Theta_e
325 325 326 326 327 328 327 326 325 324 326 327 324 322 322 323 323 322 321 319 319 320 320 322 325 326 326 326 326 326 326 326 326 326 326 327 327 326 326 325 326 324 319 318 317 319 318 314 315 315 314 315 315 316 315 316 318 319 325 325 324 330 329 329 329 324 323 320 318 318 318 319 319 318 318 318 318 318 318 319 319 321 324 324 324 325 325 322
324 325 325 326 327 327 327 326 325 325 325 326 326 323 321 322 323 323 321 320 320 321 322 324 326 327 327 326 326 325 325 326 326 326 326 326 326 326 326 324 326 323 316 314 314 316 317 314 314 315 315 315 315 316 316 317 317 320 326 325 326 332 327 323 323 319 319 319 317 317 318 319 319 317 318 317 317 317 318 320 320 325 330 327 328 330 328 325
323 326 325 325 326 327 327 326 325 325 326 326 326 324 322 322 323 323 321 320 320 321 322 324 326 327 327 326 326 326 326 326 326 326 325 325 326 325 326 325 326 323 316 314 313 315 317 315 315 315 315 315 314 315 316 318 318 318 320 323 330 328 320 317 317 318 318 318 317 317 318 318 318 317 317 317 316 316 317 320 321 328 333 332 331 332 329 327
321 325 326 326 326 326 327 326 325 325 326 326 327 325 323 322 323 324 322 320 319 320 322 324 326 327 327 326 326 326 326 326 326 326 325 325 326 325 326 325 325 324 319 316 315 316 317 315 315 315 315 315 314 314 316 318 319 318 317 323 327 320 318 318 316 318 318 317 318 317 318 317 318 317 317 317 317 316 315 318 320 323 328 328 329 329 327 326
316 321 324 326 326 326 326 326 325 325 325 326 327 326 324 322 323 324 323 322 321 320 322 324 326 326 327 326 326 326 325 328 326 324 325 325 326 325 326 325 325 324 320 317 316 316 318 316 315 315 314 314 313 314 316 317 318 318 317 319 320 317 319 318 315 317 317 317 318 317 318 317 317 317 317 317 318 318 316 316 316 316 318 320 323 323 323 324
313 317 321 325 326 325 326 326 324 324 325 326 326 327 326 323 323 323 324 324 323 322 322 324 326 326 326 326 326 325 326 327 323 323 325 325 325 324 325 325 324 323 319 317 316 316 317 316 315 314 314 314 313 314 315 316 317 319 319 317 317 317 318 317 315 317 317 318 317 317 317 317 317 317 317 316 317 317 316 317 316 316 316 315 316 318 319 321
313 314 318 323 326 325 326 326 324 323 324 325 326 326 326 324 323 324 324 324 325 324 323 324 325 326 326 325 324 324 325 324 319 319 324 325 325 324 325 324 323 321 319 317 317 316 316 315 314 314 313 314 314 313 314 315 316 318 319 317 316 316 316 316 316 315 318 318 317 318 317 317 317 317 317 316 316 316 317 317 317 316 316 316 316 315 315 317
313 312 314 319 324 326 326 326 324 323 324 325 325 326 326 325 324 324 324 324 324 325 325 324 325 325 325 324 323 323 324 325 320 316 321 325 324 324 324 323 323 322 319 318 318 316 316 315 313 313 313 314 314 313 313 314 316 317 318 317 315 316 315 316 316 315 317 317 317 317 316 316 316 316 316 316 316 316 315 317 317 317 317 316 316 315 314 314
313 312 313 319 325 325 324 324 323 323 323 323 323 324 325 325 324 324 324 324 324 325 325 325 325 325 325 324 323 322 323 325 323 315 316 324 325 324 323 323 323 324 321 318 318 316 315 315 313 314 313 313 313 312 312 314 316 317 317 316 315 314 314 315 315 315 316 316 316 317 315 315 315 316 316 316 316 316 315 316 317 318 318 318 316 314 314 314
315 313 314 319 323 324 323 323 323 323 322 322 321 321 321 323 324 324 324 324 324 324 325 325 325 324 324 323 322 323 324 325 324 318 315 320 325 325 323 323 323 324 323 318 317 317 315 314 314 314 313 313 313 312 312 315 316 316 315 316 315 314 314 314 315 315 315 316 316 317 316 314 315 316 317 317 316 316 316 316 317 317 318 319 317 315 315 314
316 316 316 317 319 322 324 323 324 323 322 322 320 320 319 320 322 323 324 324 324 324 324 324 324 324 324 323 322 323 325 325 324 324 321 318 322 326 324 324 325 324 322 317 316 317 315 315 314 313 313 312 313 312 313 314 315 316 315 316 315 314 314 314 314 314 315 315 315 316 315 314 315 316 317 317 316 316 316 316 317 316 317 318 318 316 316 315
317 318 317 317 316 320 324 324 324 323 323 322 321 321 320 319 320 321 323 324 324 324 324 324 324 324 323 322 323 324 325 325 325 326 326 319 318 325 326 325 326 323 320 317 316 317 316 315 313 313 312 312 312 312 313 313 314 315 316 317 315 314 315 315 314 314 315 315 315 315 315 316 316 316 317 316 316 316 315 315 315 315 315 315 316 316 316 315
316 318 317 317 315 316 322 324 324 323 323 323 322 322 320 319 319 319 321 323 324 325 324 324 324 324 323 321 323 324 324 325 325 325 327 322 315 320 324 325 325 321 318 317 316 317 316 315 315 314 312 312 312 312 313 313 314 316 315 316 317 315 316 316 314 314 315 315 315 315 317 320 319 316 316 316 316 315 315 315 314 314 315 314 314 314 314 314
313 318 317 316 315 315 321 324 323 323 323 323 322 321 320 320 320 319 320 322 324 324 323 324 324 323 322 322 323 324 324 324 325 324 326 324 316 314 318 321 323 321 318 318 317 316 316 316 316 314 312 312 313 312 313 313 314 316 314 316 318 318 320 319 313 314 316 315 314 314 317 322 321 316 315 315 315 315 315 315 315 314 314 314 315 314 314 314
311 317 317 314 314 316 319 323 322 322 323 322 322 321 320 320 319 319 320 321 322 322 322 321 322 322 321 321 322 323 324 323 325 325 325 325 320 315 315 317 319 320 319 318 318 318 317 316 314 312 312 313 313 312 313 314 315 315 315 318 318 318 323 320 312 313 316 315 314 313 316 320 319 316 315 315 315 316 316 315 315 315 315 315 315 315 315 315
310 315 318 314 314 315 317 322 322 322 323 321 322 321 320 320 319 319 319 320 320 320 320 318 317 319 320 320 320 320 322 322 324 323 322 324 322 319 318 315 314 317 319 318 316 316 316 314 312 312 312 312 312 313 314 315 316 315 316 321 320 317 320 319 314 313 314 315 313 313 317 318 317 314 313 315 315 315 315 315 315 315 316 315 314 315 315 317
309 313 317 316 317 316 316 321 322 322 322 321 322 321 320 321 319 319 319 320 320 318 319 318 316 317 319 319 317 317 320 320 319 316 316 319 319 318 319 314 310 313 316 314 313 313 313 312 311 312 313 312 312 313 314 314 316 316 314 318 322 318 317 318 318 314 313 314 314 313 315 318 316 313 313 314 314 315 314 314 315 315 315 315 315 315 315 316
309 312 316 317 319 317 315 319 321 321 321 321 321 321 321 321 319 319 318 318 318 316 317 316 315 317 319 317 314 316 320 319 316 313 312 313 312 313 316 314 310 311 312 312 312 312 312 311 311 313 313 313 312 312 314 317 320 320 316 315 318 318 316 318 319 316 314 314 315 314 314 316 317 313 313 314 314 314 315 315 315 315 315 315 316 315 315 316
308 311 316 318 321 318 315 318 321 321 321 321 321 321 320 320 319 319 317 316 316 314 315 313 314 319 319 317 315 315 318 317 313 312 311 310 311 312 312 311 310 310 311 312 313 311 311 312 312 312 313 312 312 311 314 319 321 321 319 315 316 317 315 317 319 316 314 315 316 316 314 314 315 314 313 314 314 313 314 315 314 315 315 315 316 316 316 315
308 310 314 318 321 319 316 320 322 321 321 321 320 320 318 317 317 316 315 316 315 314 315 314 315 317 314 316 316 314 314 314 312 313 312 311 311 312 311 311 311 311 311 312 313 311 311 313 312 311 311 312 312 312 312 315 315 315 316 316 316 318 316 316 319 315 312 315 316 316 316 315 315 315 313 312 314 313 313 313 313 314 314 314 315 315 315 315
308 309 313 317 321 321 319 321 322 321 321 320 320 319 317 316 316 316 314 315 315 314 313 315 317 315 311 315 316 313 313 312 312 313 312 312 311 312 312 311 311 311 311 311 312 311 311 313 312 311 311 312 312 313 312 312 312 313 318 317 314 318 318 316 316 315 312 314 316 316 315 315 315 315 312 311 313 313 313 312 313 314 314 315 315 315 315 315
309 309 313 316 320 322 321 319 319 321 320 319 320 318 317 316 316 316 314 314 315 313 312 314 316 314 310 313 315 314 313 312 313 313 313 313 312 312 312 311 311 311 311 311 312 312 311 311 312 311 311 311 312 312 312 312 312 315 320 318 315 317 317 315 315 315 313 314 317 317 315 315 315 314 312 310 312 313 314 314 314 314 314 314 315 315 315 315
310 311 314 317 320 322 321 318 317 321 320 319 319 318 317 316 315 316 315 314 314 313 312 312 314 314 312 313 314 313 312 312 312 313 313 313 312 313 312 310 310 311 311 311 312 312 311 311 312 312 311 311 312 312 312 312 313 317 318 318 319 319 317 316 315 314 313 313 315 316 315 315 314 315 314 312 313 313 313 315 315 315 315 315 315 315 315 315
312 313 315 318 320 321 321 319 319 320 320 319 319 317 317 315 315 315 314 313 313 313 312 311 312 313 312 313 313 312 312 312 312 313 312 313 313 312 312 311 310 311 311 311 312 312 313 312 310 311 312 312 312 312 313 312 314 318 319 319 321 320 318 318 316 314 313 313 315 314 315 318 316 314 315 313 313 313 313 314 314 315 315 315 316 315 315 315
313 314 316 319 321 320 320 320 319 319 319 319 318 317 316 315 315 315 314 314 312 312 312 311 311 312 312 313 312 312 312 311 312 312 312 312 313 312 312 311 310 311 311 311 312 312 313 311 311 313 313 313 313 315 316 315 314 317 321 321 319 320 321 319 318 318 315 315 317 313 314 326 327 319 316 313 312 312 312 312 312 315 316 315 316 316 315 315
315 316 318 320 321 319 319 320 319 319 318 318 317 316 316 315 314 314 315 315 313 311 311 310 311 312 312 313 312 311 311 312 312 312 312 312 313 312 312 312 311 311 311 311 312 314 314 311 311 313 314 316 316 316 318 318 315 315 318 321 322 324 325 322 319 320 319 317 316 313 314 323 326 321 320 317 315 315 312 311 311 313 315 315 315 316 316 315
317 318 320 321 319 318 319 318 318 319 317 317 317 316 315 314 313 313 315 315 314 312 310 310 311 312 312 312 312 311 311 313 312 312 312 312 313 312 312 312 312 312 312 312 314 315 314 312 313 315 315 317 316 315 318 318 316 317 320 324 325 324 324 325 321 320 321 318 317 319 316 317 319 320 322 319 317 317 314 314 313 312 313 315 315 316 316 315
318 319 320 320 319 319 319 318 318 318 317 316 316 315 315 314 313 314 315 315 315 312 310 310 311 312 312 312 311 311 312 313 313 313 312 312 313 312 312 312 312 314 312 312 315 314 313 315 316 316 316 316 316 319 321 317 317 320 323 325 326 325 327 329 324 320 319 316 321 325 317 315 322 327 325 318 315 317 318 319 315 312 314 315 315 316 316 316
318 320 320 319 318 318 318 318 318 317 316 315 315 315 315 314 314 313 314 315 313 310 310 310 311 312 312 311 311 311 312 312 312 313 311 313 313 311 312 311 311 315 314 313 317 316 313 314 315 316 317 317 320 324 324 320 316 318 321 325 327 329 329 325 325 325 318 315 324 329 319 315 323 329 325 316 315 318 320 321 315 311 314 316 316 316 316 316
319 320 320 318 318 317 317 317 316 316 315 314 314 314 314 313 314 314 314 314 312 310 310 310 311 312 311 311 311 311 311 311 312 312 311 312 312 310 312 311 311 318 320 320 321 317 312 310 313 316 314 315 319 318 318 319 316 315 321 326 324 327 330 328 330 326 317 320 330 331 322 314 317 327 324 316 318 321 318 319 316 312 313 313 315 315 315 316
320 320 319 318 317 317 317 316 316 316 315 314 314 314 314 313 313 314 314 313 313 311 310 310 312 312 311 310 311 311 312 312 311 311 312 312 312 310 312 312 312 317 320 320 320 317 314 312 313 313 310 312 317 315 314 316 316 318 325 325 318 322 331 331 328 321 316 325 329 323 319 315 316 325 325 318 319 319 316 319 321 318 314 313 314 314 314 315
319 319 318 317 317 317 317 316 316 316 315 314 314 313 313 313 313 314 314 313 313 312 310 312 312 312 311 310 311 312 313 313 311 311 312 311 311 311 312 314 314 314 315 318 319 317 316 316 314 312 310 312 318 318 315 315 317 320 323 319 315 319 323 322 322 320 321 325 320 314 316 317 317 320 320 318 318 316 314 316 320 318 314 315 315 315 315 315
319 319 317 317 316 316 317 316 315 315 314 314 313 312 313 314 315 314 312 313 314 311 310 312 312 312 311 311 312 312 314 314 311 311 311 311 312 311 313 316 315 315 316 318 319 316 317 318 314 314 313 312 315 316 315 316 318 318 317 316 318 320 317 315 319 320 320 321 316 311 314 318 318 317 318 318 315 314 312 312 315 316 315 316 316 315 316 314
319 318 316 316 316 316 316 316 315 315 314 314 312 311 313 315 315 313 312 313 313 311 310 312 312 312 311 311 312 313 315 314 311 311 312 312 312 311 313 314 314 319 320 317 316 315 317 318 315 315 313 312 316 316 316 319 317 317 319 317 318 322 321 320 321 321 319 319 315 310 314 321 320 317 318 314 310 312 313 312 314 315 315 316 315 315 315 313
318 316 315 315 315 315 315 315 315 314 314 313 311 312 314 315 314 313 312 312 311 310 311 312 312 311 311 312 312 313 315 314 312 312 312 312 311 311 312 311 312 319 319 314 314 314 314 316 316 315 312 312 316 315 315 317 316 317 320 319 317 321 329 326 322 325 324 319 316 313 318 324 319 315 314 310 310 312 311 312 314 314 315 315 314 314 313 313
315 314 314 315 314 314 315 314 314 314 313 311 311 312 314 314 314 313 312 311 310 310 311 313 312 312 312 312 313 313 314 314 313 312 312 312 311 311 312 311 312 315 314 314 316 314 312 314 315 314 312 311 312 313 314 314 316 318 317 320 321 319 326 324 316 317 316 316 319 316 317 322 317 315 317 313 313 313 311 311 311 312 313 312 312 313 312 313
314 313 313 313 313 314 314 313 313 314 313 310 311 313 312 312 314 313 312 310 310 310 312 313 312 312 312 312 313 314 315 315 313 312 313 312 312 312 311 311 312 312 313 313 314 315 316 315 313 314 314 311 309 310 311 310 314 319 317 318 319 315 321 323 316 314 313 315 321 316 314 320 318 319 323 317 314 315 314 312 310 310 311 310 311 312 312 314
313 313 313 312 313 313 312 312 313 313 311 310 313 313 311 312 313 312 311 310 310 311 312 313 312 311 312 312 312 313 315 314 312 313 313 312 313 313 311 311 312 311 312 311 312 316 319 318 313 312 315 313 310 312 314 310 311 316 316 315 318 317 319 320 317 318 316 314 321 319 316 318 318 321 324 317 317 320 317 314 312 311 310 310 311 312 313 314
312 312 312 312 312 312 311 312 313 312 310 310 313 313 312 313 314 312 311 310 310 311 311 312 312 311 312 312 312 313 314 313 312 313 313 312 314 314 310 311 313 311 310 311 315 318 319 321 316 312 314 314 312 313 317 315 311 313 314 313 317 319 320 320 317 319 322 318 320 321 317 320 323 323 322 317 319 322 318 316 313 309 310 311 311 312 313 314
312 311 311 312 311 311 312 312 312 310 310 310 312 313 313 315 315 312 310 311 311 311 312 312 312 311 312 313 313 313 313 313 312 313 314 313 313 312 311 311 313 312 311 311 316 317 315 320 320 313 311 313 314 315 317 316 313 314 315 313 314 315 316 319 318 321 325 321 320 318 317 328 331 322 319 315 315 318 317 317 314 308 309 312 311 312 314 314
312 311 311 311 311 312 312 311 310 309 310 310 310 313 314 314 315 312 310 311 311 313 313 312 311 312 312 313 313 313 313 314 313 313 315 313 311 313 312 311 312 313 312 312 316 318 314 316 319 315 313 314 318 317 316 316 315 314 314 314 315 314 315 317 316 320 321 319 322 319 316 330 334 320 318 316 313 314 311 311 312 308 310 312 311 312 313 313
312 311 311 311 311 312 311 311 310 309 310 311 310 313 315 314 315 313 311 311 313 315 315 312 312 312 313 313 313 314 313 314 313 313 315 313 312 314 313 311 311 311 312 313 314 317 318 317 318 317 315 316 317 314 311 313 316 316 315 315 314 314 317 317 316 319 318 315 320 318 314 326 332 322 319 316 312 310 307 307 309 309 310 311 311 312 313 313
311 311 311 311 311 312 311 311 310 309 311 311 311 314 313 314 315 314 313 313 314 316 314 312 312 312 313 314 314 314 313 313 314 313 314 314 313 313 312 311 312 311 312 314 313 315 317 319 319 316 315 317 319 315 311 311 314 316 315 315 315 315 316 317 319 322 321 318 317 315 314 324 332 322 312 308 308 308 308 309 310 311 312 311 311 312 312 313
311 311 310 310 311 311 311 311 310 310 310 311 314 316 313 313 315 314 315 315 315 319 317 313 313 313 314 314 313 314 313 314 314 313 315 316 313 313 312 310 312 312 311 313 314 313 314 317 318 317 317 317 319 317 313 313 314 316 316 315 315 317 315 315 317 316 318 321 319 316 315 320 329 324 311 309 312 310 308 308 310 313 314 311 312 312 312 313
311 310 310 310 310 310 310 311 310 309 310 311 315 317 315 314 314 313 315 315 316 320 319 315 314 314 316 315 313 314 314 315 317 315 316 317 314 313 312 310 312 312 311 312 311 312 317 319 317 317 317 315 315 316 316 317 316 316 318 316 316 317 315 316 319 314 316 323 320 316 316 315 320 322 316 316 319 315 310 308 309 313 314 312 312 312 313 314
310 311 310 310 310 310 311 311 310 309 309 312 314 316 315 315 314 313 314 315 315 318 319 318 316 315 315 315 314 314 313 317 320 316 315 318 318 314 311 310 311 310 311 312 310 313 322 320 315 315 315 313 315 317 317 318 317 315 317 317 316 317 316 318 321 317 316 321 319 318 319 314 314 316 315 317 320 320 315 309 308 311 312 313 313 313 313 313
310 310 310 310 310 310 311 312 312 309 309 311 313 314 314 315 315 314 314 315 315 316 319 319 317 316 315 314 315 314 312 317 319 316 317 319 317 313 310 310 311 310 311 311 309 315 321 317 314 316 314 314 320 321 316 315 316 314 316 317 316 317 317 317 318 315 314 316 316 317 318 315 313 313 314 317 319 320 314 308 308 310 311 313 314 313 314 313
309 309 309 310 310 311 311 312 311 310 309 311 312 313 314 315 315 314 315 316 314 316 319 318 316 317 316 314 315 315 313 316 316 316 318 317 314 314 313 311 310 310 311 310 310 316 319 315 315 316 313 314 321 321 315 314 316 315 315 316 316 317 318 317 316 316 316 315 313 314 316 316 313 312 315 315 313 313 313 310 311 311 309 311 313 313 314 314
307 308 308 308 310 310 310 311 311 310 310 312 313 313 313 314 314 315 317 317 315 316 318 318 316 317 317 315 316 315 314 315 315 316 317 314 313 316 316 313 311 309 310 311 311 313 315 317 318 315 312 314 319 320 316 315 316 316 315 315 315 316 316 316 315 315 315 315 313 314 315 315 312 312 314 312 310 311 311 310 311 311 310 310 311 313 314 313
307 308 308 308 309 309 309 310 312 311 310 312 313 312 312 313 314 315 317 316 315 316 316 316 317 318 317 317 316 315 314 315 316 316 314 312 313 316 316 315 314 311 310 312 312 309 312 319 319 314 312 314 317 318 316 315 316 316 316 315 314 315 315 315 315 314 314 315 314 314 315 313 312 311 311 311 311 311 310 310 311 311 312 310 310 312 313 313
306 307 307 308 309 309 310 311 312 312 310 311 313 312 312 312 313 315 316 314 314 316 316 316 317 317 316 317 318 317 314 315 317 315 312 313 313 314 315 314 312 312 313 313 313 312 313 316 315 313 314 314 314 316 316 316 316 316 317 317 314 313 314 314 314 314 314 314 314 314 314 313 312 312 311 311 311 310 310 311 312 311 311 310 310 311 312 312
306 307 307 309 309 309 310 311 312 312 311 311 312 312 312 312 313 315 315 313 314 314 314 315 316 316 316 317 317 316 313 313 314 312 311 312 312 311 312 311 309 312 314 313 314 316 316 317 315 315 316 314 312 315 317 316 315 315 316 316 313 313 313 313 314 314 314 314 314 314 313 312 312 313 313 312 311 310 310 312 312 312 312 311 310 311 312 312
Wind_Speed
41 44 45 45 43 42 41 38 38 38 38 37 38 38 37 35 34 34 35 36 35 33 34 33 30 27 27 27 25 23 22 22 20 18 16 14 15 18 22 19 12 6 3 6 6 10 13 9 7 7 10 4 7 10 7 5 5 2 2 2 4 3 3 5 5 6 8 5 8 13 13 11 7 9 15 12 13 16 11 10 11 8 8 7 8 11 13 15
35 42 43 43 44 44 42 40 39 38 39 38 38 39 39 36 35 34 35 36 35 33 33 32 29 27 27 24 22 19 19 20 18 19 18 15 14 16 21 21 13 8 5 4 4 8 13 14 6 2 8 7 7 11 8 4 4 5 2 1 4 4 4 4 8 12 11 11 13 15 14 14 12 13 15 8 10 16 11 9 12 12 12 11 13 15 15 16
32 37 40 41 44 44 42 41 40 39 39 39 38 39 40 38 36 35 36 37 36 34 31 31 28 25 25 22 20 18 17 16 16 20 21 18 15 15 19 21 16 11 8 6 7 8 12 15 6 4 3 6 8 12 9 4 3 6 4 1 5 5 5 4 11 18 16 20 18 15 14 13 15 16 14 9 10 12 10 11 12 15 17 17 18 18 17 17
32 32 37 43 45 45 44 42 41 40 39 38 39 39 39 39 38 36 36 36 36 34 31 30 27 25 23 20 18 18 16 11 14 23 22 17 16 16 19 21 19 14 9 7 9 9 10 13 8 6 1 5 10 13 10 7 4 5 5 4 5 3 3 6 3 15 21 26 22 18 13 10 16 17 14 13 9 5 11 18 15 16 21 21 21 20 18 18
36 29 33 41 43 44 44 43 42 41 39 38 39 39 40 39 39 38 36 36 35 35 33 30 27 25 22 20 17 17 14 4 9 22 21 17 16 17 19 20 20 18 12 7 8 12 11 11 9 5 1 4 8 9 8 12 8 3 5 10 7 4 2 3 4 10 21 24 21 17 12 12 16 15 16 15 8 7 15 21 18 18 20 20 21 21 20 20
41 34 32 36 40 42 41 42 43 41 39 38 39 39 40 40 40 39 38 37 35 35 34 30 27 26 23 21 18 17 16 4 2 14 21 20 16 16 19 19 20 18 14 9 6 13 14 11 10 3 0 2 7 8 10 14 10 4 7 8 5 3 3 2 2 6 17 21 18 15 14 17 15 10 16 15 9 10 14 18 19 18 17 19 20 21 21 20
41 40 36 34 38 42 43 44 43 42 39 37 39 40 40 41 41 40 39 38 36 35 34 32 28 26 25 22 19 18 19 11 5 8 19 23 18 18 21 20 18 16 16 13 8 16 18 13 10 4 1 3 8 10 13 15 12 7 5 5 2 1 3 4 2 4 14 20 17 17 16 17 13 7 13 13 9 9 7 10 18 20 17 19 20 20 19 18
41 43 41 36 39 43 44 46 44 42 41 38 39 40 39 40 42 42 41 39 37 35 34 33 29 27 27 23 21 18 20 19 7 5 13 24 23 21 24 23 18 15 16 15 11 18 22 15 12 7 2 6 11 10 13 13 9 7 5 4 1 1 1 4 3 3 11 14 14 16 13 13 12 8 10 12 10 10 7 6 13 19 21 21 20 20 19 17
40 41 41 37 41 46 43 43 44 41 40 39 39 40 38 39 41 42 41 40 38 37 35 33 30 28 26 24 22 15 19 26 15 5 6 20 28 27 28 27 22 17 15 15 12 18 23 17 15 12 4 12 14 12 15 11 5 6 7 4 2 2 0 3 4 3 7 9 12 13 8 8 10 6 8 14 14 11 9 7 11 17 21 22 20 19 19 17
41 39 42 37 36 45 45 42 42 40 39 38 39 39 38 38 38 38 40 40 39 37 36 34 31 28 25 25 21 11 19 28 21 9 5 10 28 31 31 28 24 20 15 17 14 16 23 20 18 15 7 14 13 11 14 8 3 4 6 6 4 3 1 1 3 3 5 5 9 9 5 6 8 5 4 12 16 14 12 11 12 15 18 21 20 19 18 17
42 40 44 41 34 41 49 44 41 41 38 36 36 37 37 37 36 36 37 38 38 37 36 33 30 28 26 26 22 13 18 24 23 18 4 3 20 31 32 28 25 22 18 20 18 15 19 21 19 11 7 8 9 12 13 9 7 3 6 5 2 2 2 1 2 4 4 3 5 6 4 3 4 4 6 11 17 18 17 15 15 15 17 18 19 19 19 18
42 42 42 42 37 38 45 45 43 42 38 35 34 34 35 36 35 35 35 34 35 35 33 30 28 27 27 27 27 23 19 18 21 23 15 7 13 25 28 25 25 23 20 22 22 15 16 23 19 11 10 6 6 8 9 11 8 3 7 2 2 2 0 3 3 5 4 3 5 7 3 2 1 7 11 12 18 21 19 18 18 17 17 17 17 17 18 19
42 44 42 42 41 39 41 45 46 43 39 36 34 34 35 34 33 34 33 32 33 31 30 29 28 28 27 22 24 28 22 18 19 21 21 16 12 19 25 23 24 24 22 22 21 18 20 22 17 15 17 12 8 7 10 12 7 3 4 2 0 4 3 6 5 5 3 4 7 6 2 5 6 14 15 12 19 23 20 20 21 19 18 18 17 17 17 18
43 46 44 43 43 41 42 47 48 44 40 37 34 33 33 33 32 32 31 30 30 29 29 30 30 29 26 19 19 25 24 20 20 19 22 25 17 16 21 25 26 26 24 23 22 21 19 17 15 17 19 16 12 10 10 8 3 3 2 1 2 1 4 6 5 7 4 4 7 5 2 6 7 13 14 15 21 23 22 21 21 21 20 20 20 19 19 20
45 47 46 46 46 43 43 48 49 45 42 38 35 33 33 32 30 30 30 27 26 25 28 30 31 28 22 18 17 20 23 22 24 22 21 28 27 18 17 23 28 28 27 26 25 20 17 16 16 16 14 13 12 8 5 3 2 0 3 3 1 3 4 7 3 9 5 3 6 4 2 6 7 8 9 17 23 22 22 21 21 21 20 21 22 21 22 22
48 49 48 48 49 45 42 45 47 45 42 40 37 34 32 31 30 30 27 24 22 21 23 26 28 25 14 13 16 17 23 23 22 22 21 26 29 22 16 18 25 27 27 27 24 19 18 17 16 16 12 8 6 4 2 3 3 1 3 3 2 4 3 4 3 6 4 3 4 4 2 3 6 4 8 16 22 22 21 20 20 20 18 19 22 22 23 22
50 51 50 50 51 47 42 42 44 45 43 41 38 35 34 32 31 29 25 25 22 20 23 23 23 18 7 10 16 20 27 23 20 20 19 21 21 21 21 20 24 28 28 25 18 16 18 17 14 11 9 5 3 4 3 4 3 3 0 2 4 4 3 2 4 5 4 3 4 5 3 4 6 3 8 14 18 19 18 19 20 20 19 19 20 22 23 23
53 53 51 51 51 49 45 43 43 43 44 42 40 39 36 32 31 31 28 27 24 21 19 21 21 11 6 16 19 20 30 25 21 21 18 20 18 18 22 23 26 27 23 19 14 15 16 14 12 5 4 5 4 5 4 5 5 3 3 3 4 2 4 5 3 4 6 3 4 5 4 9 8 5 7 12 15 17 18 19 20 19 19 21 22 22 22 23
55 55 54 52 53 54 51 47 45 45 48 45 43 44 39 34 32 31 31 28 26 18 9 20 27 8 3 20 23 17 28 28 22 20 19 21 20 18 20 21 27 28 21 13 10 15 14 8 8 6 5 6 6 6 6 7 7 7 6 6 5 4 4 5 4 5 8 4 4 7 6 9 10 7 8 12 14 16 19 19 20 19 18 20 23 24 22 23
57 58 58 55 56 59 55 50 49 50 52 50 51 48 39 35 23 19 32 34 31 18 7 24 35 9 9 13 25 16 23 28 22 21 21 21 21 20 19 19 23 21 14 9 8 15 15 6 5 7 7 7 7 7 7 9 7 5 5 5 7 6 4 3 3 4 5 5 5 8 7 8 9 8 11 15 14 15 18 17 19 22 20 22 24 24 24 24
60 60 62 59 58 61 57 53 51 54 54 53 57 48 40 40 18 18 37 30 28 20 1 20 37 14 6 11 25 21 24 24 22 23 20 21 25 20 17 18 16 9 8 11 10 12 13 7 7 9 9 10 9 7 7 10 8 2 4 5 6 6 5 3 2 3 1 2 5 5 6 9 9 8 11 13 11 14 21 19 21 24 24 24 25 25 25 24
61 64 67 63 60 60 59 55 52 56 54 53 58 46 42 44 21 27 37 16 18 19 6 15 34 15 1 13 24 24 26 21 18 26 23 25 27 19 16 15 10 7 8 10 8 7 7 6 8 11 12 9 7 8 9 10 8 2 3 4 4 4 3 2 3 2 1 1 3 2 4 9 10 9 10 11 12 17 24 25 25 26 26 27 27 26 26 25
66 71 70 65 63 62 62 57 54 57 56 57 57 43 41 39 18 24 32 13 12 19 5 14 30 19 6 15 26 23 23 20 18 29 30 29 28 21 19 14 8 8 9 9 9 7 5 5 9 10 9 7 6 8 10 9 6 3 3 4 3 3 3 2 3 2 1 1 1 1 2 6 8 7 7 15 21 22 24 27 27 27 27 28 28 27 27 27
73 76 70 67 67 64 63 60 58 61 59 57 51 38 39 34 16 22 26 11 4 18 16 13 22 25 15 18 28 20 17 19 23 32 35 33 28 21 18 15 10 8 9 12 12 10 6 7 14 11 8 10 8 7 9 7 4 4 3 5 2 3 4 3 2 2 2 3 0 3 4 6 5 6 7 12 18 18 19 23 26 29 30 28 27 27 28 28
79 77 70 70 70 67 66 63 63 62 57 53 44 36 38 29 19 26 22 8 2 11 15 12 16 23 19 21 28 20 13 14 20 32 39 37 30 19 14 16 12 7 11 12 10 8 6 9 16 11 7 11 9 6 8 7 4 5 4 5 5 5 4 4 6 4 4 4 3 2 1 6 4 5 8 7 7 11 15 18 24 31 32 31 30 29 29 28
80 75 72 73 72 71 67 60 62 61 52 48 41 37 39 28 24 31 17 5 1 6 8 15 16 18 20 24 29 22 10 8 13 29 39 35 29 19 12 12 7 7 11 9 5 4 3 5 11 11 8 9 9 6 6 7 6 4 5 4 6 7 7 7 6 3 2 2 3 3 4 5 6 5 7 5 5 9 10 12 20 29 30 32 34 32 29 27
79 74 75 74 75 76 67 58 60 58 50 44 39 38 38 30 30 31 14 4 4 7 8 14 16 18 21 25 33 20 6 9 13 24 36 31 23 18 11 8 5 7 10 7 3 2 3 5 6 9 9 7 8 6 5 6 6 4 4 4 8 8 8 7 6 3 2 3 3 3 4 3 5 6 8 5 4 7 7 8 14 22 26 29 32 31 28 27
78 76 77 77 78 77 68 64 64 62 54 44 41 41 38 37 35 25 9 1 5 8 10 12 14 19 20 25 31 13 7 20 14 17 34 28 18 13 8 7 6 7 7 7 6 3 3 8 8 10 8 5 7 6 6 8 5 5 5 6 7 7 8 7 6 3 1 1 3 5 1 2 5 7 6 4 3 6 7 8 10 17 24 27 29 29 28 26
78 77 79 79 77 68 61 66 65 60 54 46 43 43 42 42 31 12 3 5 5 6 10 14 13 17 19 21 20 8 12 18 8 17 33 24 16 10 4 8 8 6 1 2 7 3 1 6 8 10 8 6 6 4 6 8 4 5 3 5 4 4 5 5 5 4 2 1 5 6 2 2 5 6 4 3 2 6 8 8 9 16 23 26 28 28 27 27
78 79 79 79 74 60 54 57 53 50 53 50 45 47 47 36 17 6 6 5 4 4 11 15 12 16 21 15 10 7 9 5 8 22 24 16 16 9 6 10 8 7 4 5 4 1 2 1 2 3 4 5 7 3 2 5 7 6 5 6 6 5 5 4 3 4 2 2 6 7 4 4 3 6 4 4 5 6 7 6 8 13 18 21 24 24 24 25
79 80 81 79 71 60 57 54 46 50 58 53 48 48 40 19 3 5 10 6 6 5 9 11 9 14 20 15 9 9 6 3 11 22 14 9 10 6 6 8 4 5 3 4 4 4 5 3 1 2 1 4 8 5 4 3 8 8 5 5 4 3 4 5 4 3 1 5 6 5 3 4 4 5 4 6 6 5 6 6 7 10 11 13 17 18 20 21
79 80 81 75 64 58 61 58 52 57 60 53 51 46 26 7 2 4 7 9 7 6 8 12 12 13 17 16 10 8 6 3 8 14 11 8 7 6 5 6 5 5 3 3 2 3 4 2 3 3 2 2 6 5 4 3 4 5 4 6 4 1 3 2 2 1 3 5 4 3 1 3 5 7 8 10 10 9 8 8 7 9 10 12 15 16 17 17
78 80 76 66 56 53 57 57 56 59 60 54 49 35 13 6 8 5 6 8 7 10 12 14 17 17 17 14 8 6 5 4 7 9 7 6 6 7 5 4 7 6 4 5 4 2 1 4 3 2 2 3 4 6 4 1 2 5 6 6 5 3 3 2 3 1 3 5 4 3 2 3 3 5 10 13 16 17 13 9 9 10 13 15 16 16 15 16
80 78 67 55 51 52 54 56 57 59 60 52 37 20 9 8 9 7 9 7 6 12 13 12 15 16 15 11 8 8 4 2 7 10 7 7 6 7 6 6 7 5 5 5 4 5 4 2 3 2 0 2 3 3 5 6 5 4 5 6 5 5 4 4 3 3 4 4 3 3 1 3 3 4 8 10 13 16 13 12 12 12 14 14 15 14 14 14
79 69 59 51 47 49 53 57 59 60 59 45 21 10 11 10 8 9 9 6 6 11 12 14 16 14 11 7 6 9 5 2 5 7 7 8 8 9 8 6 7 5 6 6 3 3 5 2 3 2 1 1 2 2 1 7 4 3 3 5 4 5 5 3 3 5 4 1 1 2 3 5 4 5 9 7 6 6 6 8 9 11 13 14 14 13 12 12
68 54 50 48 45 49 54 57 58 59 55 36 12 7 11 9 8 9 9 8 9 13 15 15 13 11 9 5 6 10 4 4 8 6 5 6 6 9 9 7 8 7 7 7 3 2 4 1 5 3 2 1 1 3 1 3 3 1 3 4 4 4 6 4 2 1 3 2 3 2 3 5 3 6 9 6 5 5 3 5 9 11 13 14 14 13 12 12
56 45 43 44 46 50 53 56 57 57 47 25 10 10 9 6 7 8 8 11 15 18 18 12 9 11 11 8 10 13 6 5 9 7 6 6 4 9 10 7 10 10 8 6 3 3 5 1 4 2 0 2 2 1 2 2 2 4 4 6 4 3 4 4 2 2 2 2 4 2 4 5 2 3 6 5 3 7 6 7 9 11 13 14 14 13 12 11
51 46 41 42 49 49 48 52 56 52 34 14 11 13 7 4 5 9 12 15 18 18 15 11 8 9 12 11 11 13 10 8 9 6 6 6 4 9 13 8 8 12 11 7 3 3 5 3 2 1 1 3 3 1 1 3 2 3 3 3 4 2 1 2 3 2 1 3 4 3 4 4 3 5 5 4 5 8 9 8 8 10 14 16 15 13 13 12
51 41 30 40 50 45 47 53 52 43 21 9 12 10 6 5 4 14 25 21 17 16 12 10 10 7 8 10 10 11 11 10 10 6 5 6 4 7 15 10 6 13 16 9 4 3 4 4 2 1 1 2 2 1 4 1 2 2 2 2 2 2 4 3 3 4 3 3 4 3 2 3 5 6 5 7 10 10 10 8 7 12 17 18 17 17 16 15
48 28 17 42 52 44 52 52 41 28 12 9 12 5 7 7 3 18 37 29 13 10 9 10 11 10 8 9 11 11 8 7 11 7 3 6 4 5 12 12 7 12 16 9 4 4 3 3 2 1 2 1 1 3 6 7 4 2 2 3 2 1 2 1 1 3 4 3 4 3 3 5 6 5 7 11 11 9 9 7 8 14 20 22 21 19 19 17
41 16 14 46 53 48 54 40 22 15 8 9 9 3 7 8 4 16 35 35 17 5 7 11 12 11 10 10 11 10 8 7 10 8 3 7 7 3 10 15 12 12 12 6 4 4 2 3 4 2 1 3 4 4 4 6 6 5 6 7 7 4 4 3 3 2 2 3 4 4 4 7 6 4 6 9 8 7 9 9 10 16 22 25 23 21 20 17
29 8 20 49 54 55 49 23 11 12 7 8 6 2 7 8 7 11 20 27 17 3 6 10 9 10 10 10 11 10 9 8 9 9 5 8 10 5 12 22 22 20 14 6 5 4 4 4 4 2 3 5 6 5 2 2 3 3 3 4 6 5 5 6 6 3 2 2 2 3 4 7 6 4 5 6 5 5 6 8 12 16 19 22 23 22 19 16
19 15 31 48 53 57 39 11 9 9 3 6 4 2 6 6 8 10 9 13 10 4 6 7 8 11 9 9 12 12 11 8 10 12 6 6 8 5 14 26 26 20 13 5 4 5 4 4 4 2 2 3 5 5 3 3 2 1 3 1 3 3 2 5 5 4 3 3 2 2 5 7 6 4 4 5 5 5 4 4 8 12 13 17 21 22 21 19
26 30 35 42 49 50 26 7 12 11 5 7 4 2 4 4 6 11 10 9 7 5 7 6 8 10 7 9 13 14 14 9 8 10 5 5 6 4 14 30 28 16 10 10 11 9 5 2 4 4 1 3 3 4 3 2 3 1 3 0 3 2 3 3 1 2 1 4 5 5 6 7 5 4 3 4 4 6 7 5 5 7 9 14 19 22 22 22
27 23 24 35 46 39 15 4 9 10 9 10 7 5 6 3 3 9 12 8 4 5 7 6 9 8 6 9 10 11 13 7 4 7 3 4 5 1 9 29 30 17 12 15 18 14 7 4 5 6 6 7 6 5 4 3 1 2 4 5 6 6 7 5 1 2 3 5 5 5 7 8 6 5 5 5 4 6 7 6 6 7 8 12 17 21 23 24
17 9 12 22 31 27 11 6 5 8 10 9 6 5 6 5 2 5 10 7 3 6 6 4 9 10 8 12 10 9 11 3 4 7 5 5 4 3 5 22 23 17 15 18 22 16 4 3 6 8 10 10 7 5 7 10 8 7 8 8 8 8 8 6 3 4 6 3 3 7 10 11 11 8 5 5 5 6 7 7 8 10 10 12 16 20 23 25
11 8 12 13 14 16 10 7 7 8 11 11 7 5 8 9 5 3 4 3 4 8 5 2 8 11 11 15 12 10 12 4 5 9 7 5 3 1 5 10 10 13 16 19 23 14 3 4 8 8 9 7 5 7 10 13 13 13 12 10 9 8 8 8 7 8 6 3 8 11 10 13 16 10 6 8 8 6 7 9 12 13 13 14 15 19 23 25
7 11 18 13 8 10 11 11 12 12 13 12 7 6 9 10 9 7 3 1 4 7 4 2 10 14 16 17 11 9 10 5 4 8 5 4 4 3 4 5 4 7 11 13 15 9 4 5 7 6 7 4 5 8 11 12 11 11 13 14 12 10 10 11 13 12 9 8 13 13 10 15 17 9 8 10 10 9 12 14 14 12 12 15 17 20 23 25
6 10 15 11 3 4 8 11 13 14 14 11 6 8 13 14 12 8 3 4 4 3 3 7 11 12 15 16 12 10 12 10 7 6 4 6 7 4 4 3 2 2 6 7 7 4 3 5 5 7 8 5 5 9 10 11 9 8 11 14 14 15 16 18 18 17 15 13 15 11 9 17 19 10 7 9 11 14 15 13 11 13 15 18 20 22 23 24
8 10 12 8 2 5 12 10 9 12 11 9 6 7 12 15 14 8 3 6 9 5 4 11 13 10 11 13 12 12 15 15 12 9 8 9 6 4 4 5 3 1 3 5 4 2 3 5 4 7 6 5 7 9 7 7 8 7 9 12 15 18 19 19 17 14 12 13 16 12 12 18 14 3 3 10 13 12 9 9 13 18 19 19 21 22 23 24
10 10 14 12 3 5 11 7 6 9 8 8 7 6 10 13 14 10 2 1 8 8 7 11 13 9 7 10 12 12 14 14 14 19 22 19 16 13 7 7 10 8 4 5 5 3 4 3 2 6 5 6 6 7 5 3 4 4 10 16 18 17 14 13 12 11 12 14 15 12 14 16 5 6 5 16 13 9 9 13 17 19 19 20 22 23 23 24
12 11 17 15 4 2 9 6 4 8 9 8 7 5 8 10 9 10 5 2 2 5 9 14 14 9 7 10 11 13 17 18 20 26 26 22 21 17 11 15 20 15 8 5 3 3 6 5 3 6 6 4 2 7 7 6 3 7 13 14 14 11 10 9 9 12 15 14 12 12 15 13 3 5 10 14 7 8 13 18 19 20 22 23 23 23 22 23
Wind_Direction
219 214 215 213 210 208 205 206 204 203 204 203 204 204 204 202 201 202 203 204 204 205 203 201 198 195 193 191 191 192 193 193 193 197 196 192 197 207 204 196 187 167 191 217 221 204 181 164 174 207 233 244 340 312 297 273 240 225 128 162 252 239 218 223 200 174 149 150 181 182 174 155 135 127 127 128 145 138 137 142 137 154 155 153 164 159 160 167
224 215 216 212 208 206 205 205 203 202 203 204 204 205 205 203 202 202 203 204 203 203 202 200 199 199 197 193 190 192 197 197 202 209 200 191 196 204 202 197 193 168 139 135 168 202 177 163 162 179 225 245 319 304 285 262 215 200 162 171 230 217 241 241 170 151 143 159 174 177 172 165 164 150 142 138 143 142 131 127 139 145 143 148 159 164 171 173
227 215 214 214 210 206 204 205 201 201 202 202 204 205 205 203 203 204 204 205 204 203 204 203 203 202 200 197 194 198 201 202 216 216 200 194 201 203 201 198 196 175 148 132 147 179 173 168 152 95 211 262 297 295 277 243 219 210 197 239 242 241 297 324 154 158 159 160 163 172 174 173 174 163 157 159 154 156 155 152 151 150 152 158 165 173 178 178
225 214 210 212 213 210 205 204 201 200 202 202 204 205 205 203 203 205 205 206 205 204 205 206 208 206 202 198 199 201 196 202 227 217 201 196 202 206 204 195 194 192 178 185 190 184 173 170 151 114 154 283 287 289 265 233 237 203 181 207 255 302 302 335 139 165 163 159 161 169 167 166 173 171 171 160 150 188 192 185 188 180 175 174 174 180 183 183
225 218 214 213 213 211 204 203 202 200 201 201 203 204 204 203 204 206 206 207 206 206 206 207 209 207 201 197 198 195 184 188 233 217 206 197 202 208 203 192 195 199 177 165 207 201 186 176 158 131 79 288 286 295 254 232 231 232 242 228 260 338 181 306 347 154 158 157 157 159 151 154 164 172 178 166 159 219 209 204 213 205 196 193 187 186 188 188
222 220 219 216 214 215 207 202 202 199 199 199 201 204 204 203 204 206 208 207 207 207 207 208 209 205 199 198 196 184 179 170 184 205 203 194 200 201 191 186 189 191 172 144 176 194 187 178 166 156 6 302 289 285 265 248 225 229 272 243 262 315 187 252 330 137 156 155 153 157 151 152 155 169 183 180 186 206 210 213 216 213 208 205 196 190 190 192
218 218 220 217 213 216 210 203 201 199 198 197 200 205 204 201 203 207 209 209 208 207 207 209 208 202 197 196 189 182 190 193 120 170 199 196 201 196 179 175 174 170 174 167 164 183 181 171 161 161 198 284 277 266 277 267 226 211 266 277 307 244 204 221 250 111 156 159 159 162 153 155 157 166 186 189 191 180 180 200 207 210 205 198 196 194 195 197
218 218 221 222 215 213 207 199 198 198 197 196 200 205 203 201 202 206 209 210 210 209 208 208 207 202 200 195 185 184 200 203 174 119 190 196 199 197 182 174 169 163 174 176 173 182 180 174 175 165 151 248 256 270 295 286 231 210 239 268 300 207 220 203 208 104 142 152 159 161 152 166 170 165 184 187 180 171 166 169 181 193 196 193 196 197 197 199
220 217 217 223 215 209 205 197 194 196 198 198 201 205 204 202 202 204 208 210 211 211 209 207 207 204 201 197 188 190 207 204 193 118 142 190 195 198 192 182 179 179 177 180 188 185 177 179 186 169 176 250 258 281 295 286 223 218 222 209 164 180 160 175 200 137 124 136 154 154 135 157 170 166 188 191 186 183 189 185 169 178 188 190 193 195 197 200
220 215 211 217 214 205 202 198 195 195 198 199 202 206 205 203 202 203 205 208 211 212 211 209 207 203 200 196 189 199 214 205 197 170 91 184 193 197 200 195 193 192 182 184 195 182 173 177 175 168 216 260 264 282 290 274 244 254 212 184 156 167 188 159 214 182 128 133 155 151 127 138 159 169 201 194 192 192 188 182 177 178 184 187 189 193 197 202
216 214 210 212 218 207 198 197 196 195 197 198 199 202 204 202 201 203 204 206 210 212 211 209 204 200 200 196 194 205 213 209 207 202 205 212 195 197 202 204 204 195 178 180 191 185 173 173 168 174 239 264 272 284 291 281 275 253 173 167 129 134 171 163 168 177 148 141 162 135 113 107 130 182 217 191 190 196 191 180 182 186 187 189 193 197 201 205
214 212 212 210 215 211 198 195 195 194 193 194 194 195 200 201 201 203 204 205 208 211 210 208 203 198 197 198 207 214 211 211 214 212 219 226 197 197 200 204 203 187 172 178 187 190 178 173 178 209 239 247 281 283 294 298 293 214 166 178 325 20 301 215 173 181 176 155 162 123 103 287 218 218 220 196 189 191 190 186 185 189 191 194 198 203 208 210
215 210 212 209 211 214 205 195 193 192 189 189 190 191 195 196 197 200 204 206 207 208 205 203 204 199 194 202 218 221 223 224 220 214 214 213 188 187 195 196 191 179 174 180 181 179 178 179 193 228 239 252 274 273 293 301 293 223 176 141 357 2 306 228 186 176 176 168 177 143 180 258 250 232 223 197 187 186 188 191 190 193 196 198 204 208 213 213
216 210 210 209 208 210 208 197 190 190 187 186 186 189 193 191 192 196 198 203 205 202 197 194 198 197 194 209 226 224 227 230 223 218 212 209 193 176 187 189 188 186 180 179 177 173 177 187 208 232 245 254 258 272 298 303 269 217 213 168 130 111 267 256 189 165 157 197 192 157 219 253 261 245 230 203 191 187 189 195 197 200 202 205 208 213 218 217
217 210 207 208 208 206 204 196 188 186 186 184 183 186 189 189 188 192 194 197 200 199 191 184 186 188 191 211 225 219 220 225 225 225 217 210 202 187 181 186 193 195 189 186 188 185 185 195 210 229 251 254 246 261 300 320 316 175 193 256 286 158 258 303 230 179 167 200 190 161 224 257 267 256 223 202 196 194 197 201 204 207 208 210 211 215 220 222
217 211 204 205 208 205 202 195 187 183 183 181 180 181 185 186 183 186 188 186 189 193 188 181 178 177 181 207 215 207 206 216 221 218 214 209 207 208 201 190 191 196 196 193 192 191 191 197 211 230 247 248 227 216 265 300 304 336 158 226 234 174 239 313 267 219 191 161 190 208 228 251 271 250 183 189 194 197 202 202 204 210 214 213 213 218 221 222
216 212 204 202 206 203 197 196 187 180 180 178 177 178 178 179 177 176 172 171 176 177 180 183 177 174 188 207 204 200 197 202 202 195 196 197 204 216 210 190 184 191 193 188 180 177 183 188 196 225 242 236 203 172 213 254 249 291 107 206 238 188 182 237 284 255 199 159 204 221 231 240 274 256 175 184 189 195 200 200 203 209 216 217 215 219 223 225
214 211 203 201 205 199 193 197 191 181 180 177 176 174 171 171 172 168 160 155 153 151 165 174 169 168 228 210 198 196 195 191 186 182 179 180 187 204 203 191 183 182 178 176 175 171 174 180 178 198 229 214 217 176 186 217 201 203 175 205 263 233 191 202 242 226 177 172 214 199 233 249 265 274 214 201 194 200 208 208 209 211 217 220 217 219 224 228
211 209 203 200 202 197 193 194 190 184 179 174 171 165 159 158 161 165 163 158 150 144 166 173 170 161 299 204 191 188 192 184 176 179 176 174 176 185 193 190 181 171 163 166 182 179 169 164 173 192 209 207 217 191 191 207 188 181 182 187 209 222 234 212 238 230 174 163 220 202 220 243 249 262 243 220 205 210 221 221 218 217 221 221 218 222 226 229
211 208 202 199 197 192 192 186 181 184 178 170 164 154 149 149 146 159 168 175 175 169 201 182 179 184 11 184 181 172 181 181 179 178 176 177 170 168 177 174 168 166 165 160 172 182 172 163 189 197 202 206 215 202 201 217 215 198 187 196 201 205 241 246 274 264 170 157 223 217 223 246 247 247 244 230 215 215 225 225 220 217 219 220 220 224 228 234
209 205 200 199 194 187 187 180 177 184 181 175 167 158 157 157 153 171 165 172 181 167 177 185 181 188 22 161 177 171 166 176 189 183 176 178 167 159 168 164 154 166 187 163 150 169 174 184 197 191 197 204 213 210 211 231 242 229 181 205 216 206 229 259 276 273 165 162 244 238 232 252 251 243 246 233 212 218 222 218 219 218 217 219 222 225 231 237
206 202 198 196 191 182 179 179 182 186 182 176 172 168 168 165 170 179 160 147 177 162 60 174 180 186 75 164 174 173 163 161 187 190 184 175 168 164 166 164 161 171 181 163 140 154 185 206 197 194 197 197 213 215 220 238 236 216 150 170 219 217 215 302 318 302 61 162 268 282 229 251 257 252 253 236 219 227 227 222 223 222 219 220 221 223 228 232
200 196 193 193 189 178 174 180 185 184 177 173 174 176 173 170 180 177 156 120 173 182 155 175 185 186 180 173 171 174 171 160 171 186 184 176 175 177 166 164 179 171 170 172 160 166 187 207 199 195 189 193 228 222 222 240 238 221 134 132 225 220 169 247 284 294 19 152 213 45 280 265 266 266 262 243 235 235 234 231 230 229 227 228 227 228 229 228
192 190 190 189 186 178 174 178 179 178 177 176 177 179 173 173 182 167 150 104 153 197 197 196 191 184 182 174 170 181 188 173 170 177 179 177 176 177 170 170 175 171 184 182 171 173 174 183 189 183 179 197 222 225 214 220 243 255 181 154 211 207 182 203 171 137 4 341 3 65 347 297 258 255 257 246 242 241 235 228 227 230 232 235 236 236 235 233
185 186 186 184 182 177 173 171 171 175 177 176 177 179 174 171 173 163 147 85 80 191 198 202 196 192 187 172 175 189 191 179 180 177 177 178 174 167 169 176 176 182 191 179 164 175 189 184 183 180 183 195 204 219 206 192 211 260 230 190 186 173 154 126 119 97 43 332 279 115 353 293 289 261 253 254 257 250 237 221 221 228 229 231 234 236 236 235
182 182 180 180 178 173 168 166 170 174 174 176 178 178 175 167 161 163 149 51 167 170 177 180 183 190 185 176 180 183 179 187 189 179 176 177 175 165 162 176 183 188 181 170 162 183 196 171 175 182 184 186 195 215 209 179 173 231 248 192 149 130 120 131 139 115 106 242 279 108 162 260 316 302 262 260 259 255 244 226 226 229 229 229 232 235 234 231
179 178 176 176 173 170 167 165 169 172 172 176 176 173 173 165 157 158 142 27 204 155 146 166 170 178 182 180 175 172 176 169 166 178 177 175 176 169 169 180 173 179 173 154 174 212 139 136 168 182 176 178 190 208 213 164 144 218 242 136 123 126 136 155 154 145 185 214 321 23 134 221 294 279 271 271 263 280 275 247 240 233 230 232 232 233 230 228
175 174 174 173 172 173 172 167 169 174 175 171 170 172 172 165 159 151 132 158 176 136 143 165 168 176 181 179 175 170 156 156 149 182 180 173 174 170 177 195 166 170 178 162 185 240 137 157 176 170 163 179 189 202 191 151 139 236 223 135 137 147 148 151 141 134 101 103 300 309 116 197 270 273 296 314 283 291 276 249 246 236 231 232 231 230 228 226
173 173 174 172 171 173 174 170 171 173 168 160 162 169 166 163 158 141 138 187 144 119 151 160 165 171 171 177 185 175 148 156 147 174 177 176 177 168 169 193 161 131 118 139 168 212 197 182 182 165 170 188 181 192 182 158 166 212 168 98 86 83 98 112 121 121 67 70 246 259 205 185 273 282 298 323 272 260 259 252 251 241 235 233 232 231 229 227
172 174 174 171 168 169 169 168 169 165 158 156 160 162 161 160 153 144 201 192 125 140 156 156 166 168 161 167 194 180 152 151 124 150 169 180 176 171 156 169 149 109 43 32 103 242 307 185 177 150 169 166 140 116 147 158 150 136 98 66 50 32 40 49 66 97 88 275 251 243 209 173 269 284 246 226 231 221 227 249 260 253 245 238 234 232 230 229
172 173 172 169 168 169 165 162 164 162 158 157 158 158 158 156 132 177 184 149 116 151 152 149 157 160 163 169 183 174 145 94 137 146 161 177 173 181 158 159 140 101 78 43 50 337 359 53 349 1 62 123 113 79 31 97 129 115 94 97 80 1 16 20 1 55 157 252 265 268 234 173 222 266 247 246 262 234 211 224 245 249 242 228 221 220 221 224
171 171 171 169 167 168 167 163 163 163 160 157 156 157 155 141 212 207 159 138 146 177 163 157 161 163 172 175 173 167 135 121 160 155 157 162 171 193 177 174 168 137 156 165 108 10 14 346 305 347 331 148 120 99 40 30 89 101 113 124 123 1 30 16 289 285 222 244 267 299 298 207 230 256 263 269 276 260 230 218 226 222 210 206 206 211 218 226
171 169 168 168 165 166 168 163 161 161 162 160 157 155 152 159 185 185 154 165 175 170 165 164 166 166 168 170 170 163 128 132 168 157 150 147 159 195 221 221 182 155 169 174 137 113 352 311 315 22 319 244 161 142 141 148 119 132 145 143 147 135 97 211 244 266 253 258 277 292 281 258 270 266 252 251 257 259 255 250 249 231 217 216 215 217 226 234
169 166 164 164 164 166 167 162 160 162 161 160 155 153 164 172 178 175 171 186 159 152 158 157 156 158 162 168 172 162 113 83 165 151 142 142 155 198 225 229 199 136 112 154 164 165 165 259 247 173 239 234 198 178 156 151 156 174 166 142 153 162 150 188 207 196 224 261 287 295 262 201 207 255 246 246 262 269 263 253 248 235 223 218 216 220 229 238
163 161 160 160 160 163 163 160 161 163 160 157 154 158 171 171 177 179 171 166 145 143 145 146 147 152 164 167 171 175 152 119 167 148 153 170 176 188 194 207 200 147 129 167 191 157 154 204 274 284 324 147 186 269 105 125 149 217 148 121 164 185 148 145 183 178 171 176 262 250 239 210 206 274 276 267 274 276 240 225 216 204 203 202 209 220 229 239
154 152 154 156 156 157 160 160 163 165 161 155 154 176 182 181 177 173 165 157 154 144 137 144 152 153 161 159 173 190 184 142 161 158 174 183 183 191 190 193 191 171 155 166 171 144 154 220 322 340 346 48 161 279 348 131 177 175 131 166 204 167 119 118 197 156 113 166 245 207 245 283 309 294 291 284 260 266 256 225 207 195 195 200 210 219 226 234
148 147 148 150 153 156 160 162 165 168 165 158 164 179 185 193 168 150 145 142 140 140 139 147 169 167 165 167 178 186 175 139 162 170 172 171 189 196 192 200 194 182 172 161 170 191 153 143 323 10 151 299 327 309 355 29 120 131 162 200 185 108 89 117 166 10 66 216 265 217 218 272 303 266 313 345 265 264 267 241 226 212 205 207 212 217 223 228
145 143 143 147 154 157 161 164 167 169 169 167 179 179 175 189 163 133 132 135 138 144 148 156 173 182 177 171 174 176 165 157 173 175 165 175 217 191 179 197 196 183 188 174 157 194 140 111 311 347 199 273 334 76 148 0 26 145 177 174 131 136 198 147 164 192 184 226 269 284 239 243 213 222 296 317 233 243 247 231 229 226 215 212 213 211 212 217
139 135 134 147 154 158 163 166 168 169 173 184 185 183 169 176 177 145 142 142 146 152 158 167 166 174 181 167 159 167 170 169 169 168 171 184 230 196 177 182 181 179 189 179 153 190 149 124 216 278 281 273 350 140 180 202 340 23 66 95 91 148 177 174 175 165 157 209 247 288 289 253 230 214 227 237 228 231 233 221 220 226 219 216 216 209 206 211
137 128 130 151 155 162 166 166 167 171 187 193 182 189 174 174 184 152 149 147 153 160 163 171 164 158 165 161 156 164 167 158 162 175 197 176 187 207 183 176 165 175 183 179 165 178 151 128 165 275 327 177 193 219 183 175 179 134 131 168 177 102 129 157 209 145 133 171 212 243 265 264 251 212 204 229 237 230 223 216 219 225 222 220 220 214 210 211
137 121 138 154 159 165 163 161 169 182 200 188 175 189 174 157 119 153 154 152 155 172 162 164 166 157 151 158 163 164 156 150 166 177 182 176 181 213 192 178 160 160 172 185 196 181 145 131 139 146 198 186 227 243 194 189 196 176 173 183 182 165 128 147 232 222 153 175 181 192 246 266 256 213 205 231 248 244 228 218 221 226 224 222 219 215 215 214
136 112 151 159 164 166 161 161 186 189 192 182 173 155 157 138 123 154 158 153 152 151 149 157 163 154 152 159 160 161 157 155 175 181 179 190 190 193 188 177 164 161 166 177 192 163 107 106 118 136 200 212 250 263 240 275 276 212 201 188 177 173 137 152 206 217 186 228 171 149 249 267 257 221 210 233 260 270 245 222 228 236 232 225 218 213 215 215
123 114 149 161 167 167 164 169 184 183 219 189 174 94 135 132 136 152 157 155 154 137 144 156 163 160 165 163 155 160 164 161 184 187 171 175 189 195 181 171 163 162 163 159 173 154 104 93 102 84 303 296 302 309 326 356 7 261 272 44 140 191 146 145 178 171 170 209 178 182 251 264 270 255 236 251 270 278 272 235 242 252 243 227 218 211 211 210
116 119 143 163 170 170 171 182 176 181 199 177 157 84 125 119 137 153 161 163 157 144 147 155 166 165 163 159 159 167 169 168 193 193 163 150 182 204 176 169 164 165 174 177 176 172 163 138 122 115 53 348 330 311 302 24 48 264 259 141 143 158 121 127 133 95 208 224 176 182 243 252 269 289 277 276 285 278 267 246 252 265 246 227 218 211 208 208
120 121 139 162 172 176 186 224 180 177 177 166 152 145 140 100 130 155 156 155 140 137 142 151 157 142 124 144 153 167 172 162 167 181 161 140 162 346 172 172 170 171 181 178 169 164 167 174 154 147 167 196 208 214 193 152 108 253 220 188 185 177 165 171 143 124 234 238 166 179 243 251 264 296 305 310 308 287 272 252 241 247 238 227 218 211 209 208
134 129 135 157 177 190 217 263 200 175 175 165 150 159 144 117 122 141 142 151 142 124 119 133 142 123 127 149 145 168 183 143 96 162 157 143 159 347 168 172 173 173 171 165 159 151 137 190 185 187 199 200 192 184 163 148 160 206 208 190 191 190 176 159 141 185 208 215 195 217 238 249 252 249 265 290 278 264 270 259 241 234 232 229 221 215 213 212
150 160 158 157 176 195 223 250 213 184 180 170 158 167 151 139 148 131 125 160 163 136 96 66 150 146 158 160 151 171 182 136 106 153 143 135 157 46 123 146 158 164 158 157 159 148 103 207 201 208 216 197 151 163 166 157 172 196 198 190 191 185 168 165 197 211 181 170 239 232 225 247 251 231 216 249 253 249 260 256 247 240 232 229 224 218 216 213
158 172 179 169 157 187 201 205 198 185 177 171 156 149 147 147 158 163 145 81 151 148 98 100 175 170 164 161 154 161 166 142 139 155 132 124 137 92 73 62 71 149 145 150 162 145 120 201 203 201 209 190 144 169 173 169 182 192 189 190 189 176 171 186 211 215 185 195 239 234 217 245 254 234 211 231 233 233 245 252 254 250 238 231 226 220 217 215
139 152 178 182 172 171 148 153 174 177 173 168 152 154 158 160 164 161 119 102 148 183 132 152 182 176 161 161 151 151 167 167 165 170 144 140 143 119 103 87 64 142 128 140 168 152 148 196 188 177 197 208 183 188 184 173 178 191 194 194 188 183 188 197 209 215 206 218 245 246 238 252 254 238 225 243 243 240 248 255 252 248 244 234 223 219 219 220
146 151 169 171 145 112 109 114 152 169 171 164 157 166 165 164 165 156 121 147 164 191 172 162 173 167 156 161 154 166 185 173 160 167 149 134 147 155 149 161 169 132 108 140 171 179 184 200 171 152 183 228 207 197 194 175 173 189 206 208 200 196 199 204 210 212 209 228 247 249 253 258 254 210 222 259 253 241 245 250 242 242 243 233 222 220 223 227
146 159 160 150 99 114 133 131 145 156 172 177 169 172 170 171 168 151 97 116 161 173 175 159 158 148 143 161 167 178 182 163 155 165 160 156 169 175 173 173 162 151 151 162 162 161 175 196 145 130 173 238 212 173 159 107 112 198 231 224 210 202 203 207 209 203 198 214 231 237 246 253 245 98 231 251 240 214 225 239 242 245 241 233 227 226 230 237
125 133 151 146 87 97 147 141 146 160 175 179 171 164 162 166 162 147 131 31 82 157 163 152 146 141 150 175 186 183 174 165 164 166 163 163 167 163 153 159 161 158 157 155 148 150 151 147 132 146 180 254 230 149 130 89 99 244 243 217 199 204 208 208 218 218 208 205 212 223 239 247 195 142 238 252 217 188 222 235 242 247 243 237 234 234 241 250